This is the latest recevied weather packets stored in our database for station/object KG4AGD. If no packets are shown the sender has not sent any weather packets the latest 10 day(s).
| Time | Temp. | Humidity | Pressure | Rain* | Wind** | Luminosity | Snow |
|---|---|---|---|---|---|---|---|
| 1777993598 | 23.89° C | 62% | 1019.3 hPa | 0 mm | - | - | - |
| 1777993296 | 24.44° C | 64% | 1018.9 hPa | 0 mm | - | - | - |
| 1777992994 | 23.33° C | 63% | 1018.9 hPa | 0 mm | - | - | - |
| 1777992692 | 22.78° C | 65% | 1019.3 hPa | 0 mm | - | - | - |
| 1777992390 | 23.33° C | 65% | 1018.9 hPa | 0 mm | - | - | - |
| 1777992088 | 22.78° C | 66% | 1018.9 hPa | 0 mm | - | - | - |
| 1777991785 | 22.22° C | 66% | 1018.9 hPa | 0 mm | - | - | - |
| 1777991483 | 22.22° C | 68% | 1018.9 hPa | 0 mm | - | - | - |
| 1777991180 | 22.22° C | 68% | 1018.9 hPa | 0 mm | - | - | - |
| 1777990878 | 22.22° C | 67% | 1018.9 hPa | 0 mm | - | - | - |
| 1777990576 | 21.67° C | 68% | 1018.9 hPa | 0 mm | - | - | - |
| 1777989971 | 21.67° C | 71% | 1019.3 hPa | 0 mm | - | - | - |
| 1777989669 | 21.67° C | 69% | 1019.3 hPa | 0 mm | - | - | - |
| 1777989367 | 21.67° C | 69% | 1019.3 hPa | 0 mm | - | - | - |
| 1777989064 | 21.67° C | 70% | 1019.3 hPa | 0 mm | - | - | - |
| 1777988762 | 20.56° C | 72% | 1018.9 hPa | 0 mm | - | - | - |
| 1777988460 | 21.11° C | 72% | 1018.9 hPa | 0 mm | - | - | - |
| 1777988158 | 20.56° C | 71% | 1018.9 hPa | 0 mm | - | - | - |
| 1777987856 | 20.56° C | 72% | 1018.9 hPa | 0 mm | - | - | - |
| 1777987554 | 20.56° C | 72% | 1018.9 hPa | 0 mm | - | - | - |
| 1777987251 | 19.44° C | 73% | 1018.9 hPa | 0 mm | - | - | - |
| 1777986949 | 20° C | 73% | 1018.9 hPa | 0 mm | - | - | - |
| 1777986647 | 19.44° C | 74% | 1018.9 hPa | 0 mm | - | - | - |
| 1777986344 | 19.44° C | 75% | 1019.3 hPa | 0 mm | - | - | - |
| 1777986042 | 19.44° C | 74% | 1018.9 hPa | 0 mm | - | - | - |
* Rain since midnight (hover to see other rain measurements)
** Current wind speed in m/s (hover to see current wind gust speed)